GFSFLT1_sfc_rhum_231.txt.gz
RH
33 38 42 48 47 46 56 51 58 61 80 86 85 88 88 92 90 96 95 93 96 96 93 88 90 96 94 93 93 94 94 96 90
32 36 40 42 48 49 49 50 66 64 76 87 87 88 91 92 92 89 92 88 92 96 91 82 87 91 94 93 92 93 93 95 90
34 34 36 39 42 46 50 49 60 66 76 77 76 83 87 91 90 86 89 90 86 84 89 87 89 92 91 90 91 89 91 90 90
33 35 38 41 43 45 47 58 58 66 83 84 89 85 89 90 90 89 83 86 85 84 85 84 86 89 89 91 89 89 94 92 87
31 36 40 44 44 47 68 80 73 76 72 80 81 78 88 89 88 84 82 84 83 85 87 86 85 87 88 90 90 90 90 92 79
37 38 40 43 67 69 71 86 91 80 60 59 64 58 64 70 79 74 68 66 70 72 82 86 85 87 89 90 90 92 92 92 90
61 45 40 69 71 66 81 87 86 80 71 72 70 69 73 72 75 78 81 80 77 80 84 84 79 83 87 89 91 91 93 92 92
71 70 67 75 78 89 84 68 70 69 73 74 74 79 82 85 85 85 85 87 86 84 85 85 87 87 86 85 80 75 90 91 91
74 73 73 75 74 76 79 77 74 72 75 79 80 82 82 82 84 84 85 85 86 86 87 86 86 85 87 87 70 82 76 79 84
80 72 72 71 74 82 82 70 72 79 79 78 80 80 80 85 84 85 84 84 85 87 90 91 92 91 90 89 89 82 85 83 84
71 82 72 75 75 74 71 72 77 76 74 76 78 75 85 91 94 95 93 94 94 94 94 95 95 94 92 94 86 91 87 86 91
83 77 71 74 74 70 71 70 73 67 67 72 82 90 95 93 90 91 93 94 93 94 95 94 94 92 91 93 90 88 86 88 89
74 74 57 67 64 61 62 69 67 66 71 88 90 89 91 88 94 91 90 92 94 92 92 90 87 86 91 91 91 89 91 93 92
82 68 63 62 67 71 72 69 67 75 90 91 87 85 88 92 87 89 91 90 91 75 73 90 95 92 92 80 87 82 87 90 78
68 65 64 70 72 79 85 80 70 91 91 88 84 87 91 91 90 81 72 81 83 91 96 95 92 91 89 87 84 94 87 88 90
68 70 73 75 81 81 76 74 77 92 91 88 91 90 89 87 76 73 88 77 84 91 84 95 96 95 90 91 88 77 82 81 84
76 75 77 72 76 81 82 80 82 88 92 88 87 86 77 73 85 81 64 63 64 64 78 89 94 84 85 82 91 73 73 75 77
81 73 74 74 79 80 84 86 88 90 87 86 86 80 82 79 86 87 84 65 78 80 75 85 89 96 94 96 92 81 93 96 91
73 71 74 78 82 80 89 84 88 86 86 86 86 89 87 90 87 88 87 71 81 81 83 86 94 96 79 76 83 92 92 93 94
78 79 78 80 81 80 84 86 90 88 87 87 90 88 86 87 84 85 86 90 88 92 89 92 93 91 90 91 93 91 92 92 92

GFSFLT1_sfc_rhum_237.txt.gz
RH
57 63 66 68 68 73 77 70 79 81 94 94 95 95 95 96 94 97 96 96 97 98 96 95 96 98 98 98 98 98 98 99 99
54 56 59 59 63 68 80 81 81 81 90 94 95 95 96 96 96 95 96 95 96 98 97 98 96 97 98 98 98 98 98 99 98
50 53 55 55 59 71 77 78 85 78 91 92 92 93 95 95 97 97 96 97 95 94 94 96 95 96 97 98 98 98 98 98 98
57 54 54 55 58 63 69 68 83 82 92 91 84 83 91 94 94 92 93 92 92 91 92 91 95 95 96 96 96 97 98 98 97
47 50 52 54 55 63 72 83 88 91 92 86 76 79 93 95 95 94 89 87 90 92 94 95 94 93 94 95 96 96 97 97 92
64 50 55 60 72 66 75 88 92 92 93 84 94 94 93 85 85 79 86 90 93 89 88 92 92 93 95 94 93 93 95 96 96
66 62 58 70 75 82 95 93 93 92 92 86 82 80 85 91 95 95 95 93 92 89 89 89 90 91 92 92 91 91 92 96 96
68 83 80 73 83 94 96 93 90 90 90 86 83 90 94 95 95 93 92 93 94 94 95 94 95 95 94 93 87 82 92 91 90
77 91 92 89 86 90 90 88 89 89 91 92 89 92 94 94 93 93 95 95 96 96 96 96 96 97 97 97 76 90 89 88 93
83 92 92 92 86 88 94 95 94 93 88 88 86 91 93 94 96 97 97 95 94 96 95 94 96 96 94 93 93 93 90 85 91
88 92 91 95 94 98 96 94 97 95 95 91 93 97 97 96 95 96 94 94 95 95 94 93 93 93 92 93 91 94 94 88 93
87 91 95 94 92 96 97 93 96 98 96 96 97 97 96 94 94 94 93 94 95 93 93 92 93 94 93 96 97 90 93 94 97
97 96 94 94 93 94 95 95 96 97 97 98 98 96 96 95 94 93 94 93 91 92 92 94 97 97 97 92 95 86 86 90 98
90 95 87 86 90 91 92 94 94 96 97 97 96 96 94 94 94 94 91 91 92 95 96 95 96 96 97 88 78 77 87 87 78
89 86 86 92 96 95 94 93 94 97 96 95 95 95 95 94 93 89 90 93 94 93 95 95 96 96 98 95 88 85 89 88 89
92 85 92 93 93 95 95 94 93 96 97 97 96 93 94 93 94 93 90 91 90 93 95 97 97 97 97 98 92 95 89 89 90
97 93 96 94 94 97 98 96 94 94 96 96 95 95 94 94 94 93 90 89 91 94 96 97 97 98 97 97 98 99 98 96 93
96 96 95 92 95 96 97 97 96 95 92 91 95 95 95 95 97 94 93 92 95 94 93 95 97 98 96 96 98 98 92 92 87
96 97 95 95 96 96 98 96 95 96 94 93 95 96 97 97 97 96 96 94 96 95 95 94 96 96 93 97 92 92 88 92 94
96 95 95 96 96 96 96 96 96 94 94 94 94 95 95 97 96 97 96 96 95 95 97 94 92 92 93 92 91 93 93 89 91

GFSFLT1_sfc_rhum_240.txt.gz
RH
66 71 78 79 80 80 80 74 79 80 89 92 93 94 94 95 95 97 95 95 97 98 97 95 96 95 93 93 94 92 95 94 92
62 65 68 71 73 77 83 81 82 82 91 94 94 94 95 96 96 95 96 96 98 98 98 96 94 94 95 95 95 95 96 95 94
56 61 64 65 66 72 79 80 84 81 90 90 93 93 94 95 95 94 95 98 98 96 94 94 96 97 94 94 95 94 96 95 95
52 58 60 61 61 67 72 74 84 84 91 92 92 92 94 93 93 95 93 95 93 92 93 93 93 94 95 94 94 94 96 96 94
53 56 56 57 64 72 76 80 88 90 93 92 90 81 88 90 94 90 84 88 93 92 91 94 95 94 93 95 96 94 94 94 91
62 60 65 67 66 74 79 86 91 92 93 90 80 90 94 94 83 82 88 91 90 89 90 92 92 93 94 93 92 93 94 95 95
64 63 68 67 75 76 86 91 96 96 92 88 92 87 83 87 89 91 90 90 89 87 89 89 87 89 92 92 91 90 90 91 92
68 69 70 72 79 91 96 96 95 94 93 92 91 91 88 93 92 91 90 92 93 92 92 92 92 91 91 90 82 75 90 89 88
74 80 75 75 81 95 96 96 95 94 95 96 94 92 91 92 92 93 94 94 94 94 92 92 93 92 93 90 73 92 90 83 84
72 81 89 91 94 94 96 96 95 97 95 94 96 96 94 93 94 95 95 94 94 93 92 90 92 90 88 90 90 94 92 86 80
78 92 95 94 96 96 94 93 95 97 95 93 93 96 96 94 94 94 93 93 94 92 90 90 90 90 91 93 86 94 93 88 86
80 92 94 94 92 93 93 93 94 89 96 94 94 95 95 93 92 92 90 94 92 91 90 90 91 91 94 92 89 88 90 90 88
93 93 93 94 94 94 95 96 92 95 95 98 96 94 93 92 91 91 93 92 91 91 92 94 92 95 91 85 86 87 87 83 74
96 95 95 92 94 94 92 94 93 95 95 96 96 96 92 91 92 93 91 92 92 94 93 93 95 93 92 86 83 86 88 89 83
97 96 96 92 94 95 94 92 93 95 96 96 95 92 92 93 93 86 86 92 91 92 93 94 94 97 94 85 86 87 89 90 90
93 91 97 95 97 98 97 95 94 96 98 96 95 94 92 91 92 90 89 89 90 89 91 93 94 93 90 88 82 84 89 89 88
95 96 97 96 98 98 98 97 95 95 97 96 96 93 93 93 92 92 88 84 83 84 86 92 91 89 89 88 86 87 81 80 81
96 97 97 96 97 98 98 96 96 95 95 87 89 92 92 93 90 90 88 89 91 86 89 87 89 91 86 87 90 87 84 88 84
97 97 96 98 97 97 98 96 96 94 88 86 90 93 92 92 93 91 90 90 91 96 96 96 95 93 85 86 89 92 89 88 95
99 96 96 96 96 95 95 94 93 92 92 90 92 92 93 92 90 88 91 90 87 88 90 94 94 94 93 93 90 95 95 94 93

GFSFLT1_sfc_rhum_246.txt.gz
RH
29 29 29 33 39 43 46 49 48 48 55 62 61 62 66 69 67 52 50 56 51 53 73 86 74 61 64 64 69 67 66 58 59
27 28 28 31 36 40 43 43 47 48 55 57 59 57 67 65 64 63 58 66 68 84 87 62 67 65 65 64 69 71 77 64 62
26 28 30 30 32 35 38 35 38 43 47 50 55 51 54 55 60 66 74 71 74 77 70 81 79 71 66 67 68 72 77 81 71
24 28 31 31 32 32 35 34 36 38 47 49 50 49 52 55 67 69 69 68 75 75 73 79 76 76 71 74 72 72 77 78 71
23 29 31 30 32 34 37 39 38 41 46 48 47 51 57 59 62 65 57 61 62 64 64 64 67 70 72 70 73 74 75 74 68
28 33 32 28 28 36 42 45 50 51 53 49 46 52 53 64 67 53 56 56 53 58 61 58 51 61 69 69 70 71 72 81 80
28 36 35 30 30 35 43 49 55 57 54 53 49 50 51 61 59 59 58 58 57 55 61 59 58 59 60 61 62 60 60 61 63
30 34 35 33 34 40 47 54 58 58 55 59 57 60 60 66 63 59 61 65 65 61 61 62 62 60 60 59 50 47 65 59 57
34 32 35 35 37 38 48 56 60 60 62 68 67 72 71 72 70 71 69 70 70 68 64 65 64 61 62 59 41 91 86 75 54
36 37 36 38 37 42 49 56 60 66 70 72 76 79 77 74 73 74 73 70 70 69 69 68 68 65 62 67 67 91 89 83 47
35 36 38 40 36 43 53 55 59 65 75 86 82 77 74 73 73 71 71 72 71 73 68 67 65 64 65 67 70 86 85 82 58
38 39 40 41 38 51 62 63 68 76 86 88 81 78 79 82 76 73 72 72 72 67 67 68 66 67 70 71 73 85 85 81 56
36 39 44 50 51 58 61 67 70 76 89 94 95 96 95 92 89 88 78 70 73 69 67 66 60 68 71 85 71 92 87 80 48
41 44 52 54 55 57 61 66 64 74 84 82 81 81 84 88 88 90 91 78 72 71 68 72 75 72 73 73 77 76 87 88 61
49 52 56 54 57 56 63 64 69 72 72 67 78 85 93 98 98 95 89 86 75 75 76 82 81 77 66 59 67 90 85 86 85
51 55 66 63 60 70 70 67 66 70 70 77 80 83 89 96 97 93 93 81 76 69 75 65 64 54 46 41 39 46 82 80 79
54 57 61 73 74 81 82 75 66 64 85 80 77 80 81 80 80 77 74 69 65 53 49 48 47 40 36 36 38 38 41 44 51
53 65 66 70 75 82 84 78 73 67 74 80 77 82 88 87 82 82 77 60 52 46 51 50 38 37 38 38 37 52 78 74 54
58 59 61 63 62 73 85 83 80 80 79 81 85 91 96 96 95 68 67 66 65 96 90 93 84 80 62 51 79 90 91 92 93
72 60 62 63 65 66 79 80 83 82 82 77 83 90 88 82 66 60 63 58 53 57 77 94 92 87 86 88 80 91 91 92 91